Regional Weather Roundup
Issued by NWS Grand Forks, ND

Home | Current Version | Previous Version | Graphics & Text | Print | Product List | Glossary On
Versions: 1 2 3 4 5 6 7 8 9 10 11 12 13 14 15 16 17 18 19 20 21 22 23 24 25 26 27 28 29 30 31 32 33 34 35 36 37 38 39 40 41 42 43 44 45 46 47 48 49 50
000
ASUS43 KFGF 291510
RWRFGF
PRAIRIE TO PINES  WEATHER ROUNDUP
NATIONAL WEATHER SERVICE EASTERN NORTH DAKOTA/GRAND FORKS ND
1000 AM CDT FRI AUG 29 2014

 **SATELLITE DATA USED TO AUGMENT SKY COVER AT AUTOMATED STATIONS**
 *****  WEATHER ACROSS EASTERN NORTH DAKOTA  *****

CITY           SKY/WX    TMP DP  RH WIND       PRES   REMARKS
GRAND FORKS    CLOUDY    66  64  93 S5        29.75F
GRAND FRKS AFB CLOUDY    66  66 100 S3        29.77R
GRAND FRKS NWS   N/A     64 N/A N/A S1          N/A
DEVILS LAKE    CLOUDY    68  61  77 W10       29.74R
FARGO          CLOUDY    69  64  84 W5        29.77R
WAHPETON ARPT  CLOUDY    64  63  94 CALM      29.78S VSB 1
$$

 ***** WEATHER ACROSS CENTRAL AND WESTERN NORTH DAKOTA  *****

CITY           SKY/WX    TMP DP  RH WIND       PRES   REMARKS
BISMARCK       MOSUNNY   69  61  75 NW13      29.85R
MINOT          CLOUDY    63  59  87 NW17G25   29.85R
JAMESTOWN      CLOUDY    65  64  97 W7        29.78R
MINOT AFB      CLOUDY    63  60  91 N14G25    29.85R
GARRISON         N/A     62  59  90 W9        29.87R
WILLISTON      CLOUDY    62  55  77 N16       29.96R
DICKINSON      PTSUNNY   62  56  80 W10       29.92R
HETTINGER      MOSUNNY   64  53  67 NW15      29.94F
$$

 *****  OTHER AIRPORT OBSERVATIONS IN OUR AREA  *****

CITY           SKY/WX    TMP DP  RH WIND       PRES   REMARKS
WALHALLA         N/A     68  68 100 SW3       29.75S
GRAFTON AIRPOR FOG       64  64 100 S6        29.75S VSB 1
VALLEY CITY AR CLOUDY    66  66 100 W7        29.78S
CANDO          CLOUDY    66  64  94 W8        29.77R
CAVALIER APRT  CLOUDY    66  66 100 S5        29.75S
GWINNER        CLOUDY    66  66 100 NW3       29.80S
SHEYENNE NWR     N/A     66  65  97 NW3       29.95S
ROLLA          PTSUNNY   59  59 100 N24G30    29.82R
 ***** THE ABOVE OBSERVATIONS ARE NON NWS ARE NOT QUALITY
       CONTROLLED AND MAY MIS-REPORT RAIN FOR SNOW...
$$

  *****  WEATHER ACROSS NORTHERN MINNESOTA  *****

CITY           SKY/WX    TMP DP  RH WIND       PRES   REMARKS
FLAG ISLAND    CLOUDY    66  63  88 S5        29.76F
WARROAD        CLOUDY    66  63  88 SE3       29.78F
ROSEAU         PTSUNNY   68  63  83 SE3       29.77S
HALLOCK        CLOUDY    66  64  94 S5        29.75S
THF RVR FALLS  CLOUDY    64  64 100 SE5       29.78S
BAUDETTE       CLOUDY    64  62  93 SE5       29.79S FOG
WASKISH        CLOUDY    64  63  94 CALM      29.80S FOG
CROOKSTON      CLOUDY    66  64  94 CALM      29.77S
$$
  *****  WEATHER ACROSS CENTRAL AND WEST MINNESOTA  *****

CITY           SKY/WX    TMP DP  RH WIND       PRES   REMARKS
FOSSTON        CLOUDY    64  63  94 CALM      29.79S
BEMIDJI        DRIZZLE   64  64  97 SE3       29.79F
PARK RAPIDS    CLOUDY    64  64 100 S3        29.79S FOG
ELBOW LAKE     DRIZZLE   65  65  99 CALM      29.78S
WADENA         LGT RAIN  64  63  94 CALM      29.79R
DETROIT LAKES  CLOUDY    64  64 100 S5        29.80R FOG
MOORHEAD       CLOUDY    66  66 100 CALM      29.78S
FERGUS FALLS   RAIN      66  64  94 CALM      29.78S
MORRIS MN      DRIZZLE   66  66 100 CALM      29.78S
STAPLES        LGT RAIN  63  63 100 CALM      29.80R
$$
  *****  WEATHER ELSEWHERE ACROSS MINNESOTA  *****

CITY           SKY/WX    TMP DP  RH WIND       PRES   REMARKS
DULUTH         LGT RAIN  61  59  93 SE12      29.80F VSB 1
INTRNTL FALLS  CLOUDY    63  62  97 SE8       29.81F
ELY            HVY RAIN  59  57  94 CALM      29.84R
CLOQUET        RAIN      61  59  94 E5        29.80F
WHEATON        CLOUDY    64  63  94 CALM      29.81R
BRAINERD       LGT RAIN  64  63  96 CALM      29.79R FOG
HIBBING        RAIN      62  60  93 E7        29.81F FOG
ALEXANDRIA     CLOUDY    66  65  96 CALM      29.80S
SAINT CLOUD    LGT RAIN  69  67  93 CALM      29.78S FOG
MINNEAPOLIS    LGT RAIN  71  68  90 S7        29.80R
$$

  *****  WEATHER ACROSS SOUTH DAKOTA  *****

CITY           SKY/WX    TMP DP  RH WIND       PRES   REMARKS
SIOUX FALLS    CLOUDY    70  68  93 S5        29.79S
BROOKINGS      NOT AVBL
WATERTOWN      CLOUDY    66  66 100 N7        29.79S
HURON          CLOUDY    69  67  93 NW9       29.79R
SISSETON         N/A     68  67  96 NW5       29.78R
ABERDEEN       CLOUDY    65  65 100 NW10      29.80R
MITCHELL       CLOUDY    70  69  97 W6        29.80R FOG
PIERRE         FOG       65  65 100 CALM      29.82S VSB<1/4
MOBRIDGE       CLOUDY    65  65 100 NW6       29.81R
RAPID CITY     MOSUNNY   71  53  52 N36G44    29.97R
$$

  *****  SOME WEATHER IN NEARBY STATES *****

CITY           SKY/WX    TMP DP  RH WIND       PRES   REMARKS
GLASGOW MT     CLOUDY    57  54  89 N10       30.05R
GREAT FALLS MT SUNNY     55  50  83 E12       30.07S
CHEYENNE WY    PTSUNNY   67  44  43 NW22G28   30.15R
SCOTTSBLUFF NE MOSUNNY   62  55  77 W7        30.02R
OMAHA NE       CLOUDY    73  69  87 S12       29.82R
DES MOINES IA  MOSUNNY   78  70  76 S10       29.83F
DAVENPORT IA   SUNNY     77  69  76 S12       29.92S
CHICAGO IL     PTSUNNY   77  67  71 S10       29.99R
EAU CLAIRE WI  CLOUDY    66  65  96 S8        29.85R
LA CROSSE WI   CLOUDY    73  68  84 S13       29.84F
$$

  *****  SOME NATIONAL WEATHER *****

CITY           SKY/WX    TMP DP  RH WIND       PRES   REMARKS
LA GUARDIA NY  MOSUNNY   72  50  45 E8        30.18F
RALEIGH NC     PTSUNNY   78  68  71 NE9       30.14S
ATLANTA GA     MOSUNNY   85  61  44 SE3       30.10R
NEW ORLEANS LA PTSUNNY   88  75  65 E7        29.96R HX  97
OKLAHOMA CITY  PTSUNNY   74  66  76 SW8       29.95S
ALBUQUERQUE NM SUNNY     68  45  43 N7        30.19R
SALT LAKE CITY MOSUNNY   68  48  48 S8        30.10R
LOS ANGELES CA MOSUNNY   70  63  78 CALM      29.89S
BOISE ID       SUNNY     66  40  38 SE3       29.99S
SEATTLE WA     CLOUDY    59  56  89 S6        30.00R
$$

*** WEATHER ACROSS MANITOBA...SASKATCHEWAN AND ONTARIO ***
                ***ONTARIO***

CITY           SKY/WX    TMP DP  RH WIND       PRES   REMARKS
GERALDTON      NOT AVBL
THUNDER BAY    CLOUDY    61  59  94 E7        29.89F
SIOUX LOOKOUT  LGT RAIN  61  61 100 S5        29.81F
TORONTO        PTSUNNY   66  57  72 SE8       30.20R
BIG TROUT LK   SUNNY     59  54  82 NW5       29.75R
PICKLE LAKE    LGT RAIN  63  61  94 S8        29.77F
DRYDEN         LGT RAIN  63  61  94 S7        29.81F
KENORA         CLOUDY    66  63  88 S8        29.79S
$$
                *** MANITOBA***

CITY           SKY/WX    TMP DP  RH WIND       PRES   REMARKS
BRANDON        NOT AVBL
DAUPHIN        CLOUDY    57  54  88 N12G17    29.93R
ISLAND LAKE    NOT AVBL
PILOT MOUND      N/A     61  61 100 N15G23      N/A
THE PAS        MOSUNNY   55  46  71 NW10      29.95S
THOMPSON       PTSUNNY   52  46  82 NW12      29.87R
WINNIPEG       LGT RAIN  68  64  88 NE13      29.76F
LYNN LAKE      CLOUDY    50  41  71 MISG      29.92R
CHURCHILL      PTSUNNY   50  43  76 NW16      29.72S
GILLAM         CLOUDY    52  48  87 N14       29.79R
$$
                ***SASKATCHEWAN***

CITY           SKY/WX    TMP DP  RH WIND       PRES   REMARKS
ESTEVAN        NOT AVBL
KINDERSLEY     MOSUNNY   55  52  88 SE7       30.04S
LLOYDMINSTER   MOSUNNY   54  48  82 S8        29.99F
PRINCE ALBERT  SUNNY     52  45  76 SW3       30.05S
REGINA         MOSUNNY   59  54  82 N5        30.02
YORKTON        SUNNY     55  46  71 N14       29.98R
N. BATTLEFORD  SUNNY     54  46  76 SE12      30.06R
LA RONGE       MOSUNNY   52  43  71 W6        30.01S
SASKATOON      SUNNY     54  45  71 SE6       30.06S
SWIFT CURRENT  CLOUDY    52  50  93 SW6       30.05F FOG
$$
NOTE: THESE ARE AUTOMATED STATIONS WITH LIMITED QUALITY CONTROL
      "FAIR" INDICATES FEW OR NO CLOUDS BELOW 12,000 FEET WITH NO
      SIGNIFICANT WEATHER AND/OR OBSTRUCTIONS TO VISIBILITY.
      SKY/WX - SKY CONDITION AND SIGNIFICANT WEATHER.
      TMP - AIR TEMPERATURE.    DP   - DEWPOINT TEMPERATURE.
      RH  - RELATIVE HUMIDITY.  PRES - PRESSURE.
      HX  - HEAT INDEX.         WCI  - WIND CHILL INDEX.
$


USA.gov is the U.S. government's official web portal to all federal, state and local government web resources and services.